Погода в Бору

Россия / Красноярский край     61°35′40″N   90°01′40″E
темп.,
°C
ветер,
м/с
пор.,
м/с
влажн.,
%
обл.,
%
осадки,
мм/ч
давл.,
гПа
погр.,
м
20 апреля, вт
вт2001:00−11з41195100 2.1 1008539
04:00−11зюз3995100 3.3 1009495
07:00−10сз41195100 6.4 1009517
10:00−10сз4892100 1.6 1010565
13:00−7сз4691100 2.6 1011766
16:00−5сз4893100 1.0 1012806
19:00−5сз4109197 1.4 1014689
22:00−7зсз4109391 0.2 1016519
21 апреля, ср
ср2101:00−8зсз31095100 0.5 1017428
04:00−9зсз2796100 0.4 1019301
07:00−9сз2695100 0.7 1021263
10:00−5сз2391100 0.3 1023457
13:00−2сз2385100 0.4 1025716
16:000ссз3586100 0.1 1027826
19:00−1ссз378964 0.3 1029558
22:00−10зсз119970 0.0 103312
22 апреля, чт
чт2201:00−13зсз1110099 0.0 103510
04:00−15сз1110088 0.0 10379
07:00−11ссз129785 0.0 103979
10:00−4ссз24845 0.0 1040501
13:00−1сз238019 0.0 1041876
16:000сз237878 0.0 10421019
19:000зсз118716 0.0 104329
22:00−9ююз11965 0.0 104510
23 апреля, пт
пт2301:00−12ю119857 0.0 104610
04:00−14ю119868 0.0 104710
07:00−8юз12935 0.0 104859
10:00−1зюз239038 0.0 1048448
13:00+1зюз238479 0.0 1047856
16:00+3юз138083 0.0 1046836
19:00+1ююв12965 0.1 104643
22:00−6ююв11975 0.0 104610
24 апреля, сб
сб2401:00−8юв119851 0.0 104610
04:00−9в119866 0.0 104510
07:00−4всв11935 0.0 104453
10:00+1в128712 0.0 1042407
13:00+4всв12775 0.0 1039719
16:00+5св117187 0.0 1037857
19:00+2ссв1196100 0.0 103610
22:00−3в1198100 0.0 103510